Location: Hohe Wand Kleine Kanzel
(47.8330°N, 16.0170°E)
Time: 06:46:26
(UTC+02:00)

Transit 4A - Visible Passes

Search period start: 31 July 2021 00:00
Search period end: 10 August 2021 00:00
Orbit: 872 x 972 km, 66.8° (Epoch: 30 July)

Date Brightness Start Highest point End Pass type
(mag) Time Alt. Az. Time Alt. Az. Time Alt. Az.
31 Jul 8.5 00:29:38 35° ESE 00:29:47 35° ESE 00:35:01 10° NE visible
31 Jul 8.4 02:13:07 28° WSW 02:15:59 49° NW 02:21:38 10° NNE visible
31 Jul 10.0 04:00:07 10° WNW 04:03:47 17° NNW 04:07:27 10° NNE visible
01 Aug 8.0 00:38:25 49° SE 00:38:55 51° ESE 00:44:34 10° NE visible
01 Aug 8.9 02:21:55 19° W 02:25:27 37° NW 02:30:51 10° NNE visible
01 Aug 10.1 04:10:32 10° NW 04:13:36 14° NNW 04:16:39 10° NNE visible
01 Aug 9.7 23:03:43 12° E 23:03:43 12° E 23:05:09 10° ENE visible
02 Aug 7.7 00:47:11 60° S 00:48:08 72° ESE 00:53:58 10° NE visible
02 Aug 9.3 02:30:40 13° W 02:35:02 29° NW 02:40:02 10° NNE visible
02 Aug 10.3 04:20:57 10° NW 04:23:28 13° NNW 04:25:58 10° NNE visible
02 Aug 9.3 23:12:24 19° E 23:12:24 19° E 23:15:45 10° ENE visible
03 Aug 7.7 00:55:53 52° SW 00:57:26 82° NW 01:03:18 10° NNE visible
03 Aug 9.7 02:40:07 10° W 02:44:39 23° NNW 02:49:13 10° NNE visible
03 Aug 10.4 04:31:17 10° NNW 04:33:22 12° N 04:35:28 10° NNE visible
03 Aug 8.8 23:21:03 28° ESE 23:21:03 28° ESE 23:25:40 10° NE visible
04 Aug 8.2 01:04:31 36° WSW 01:06:47 60° NW 01:12:34 10° NNE visible
04 Aug 10.0 02:50:21 10° WNW 02:54:22 19° NNW 02:58:24 10° NNE visible
04 Aug 10.4 04:41:20 10° NNW 04:43:17 12° N 04:45:14 10° NNE visible
04 Aug 8.2 23:29:36 40° ESE 23:29:55 40° ESE 23:35:18 10° NE visible
05 Aug 8.7 01:13:05 24° WSW 01:16:13 44° NW 01:21:48 10° NNE visible
05 Aug 10.2 03:00:43 10° WNW 03:04:09 16° NNW 03:07:36 10° NNE visible
05 Aug 10.5 04:51:03 10° NNW 04:53:12 12° N 04:55:21 10° NNE visible
05 Aug 7.8 23:38:06 51° SSE 23:39:04 58° ESE 23:44:48 10° NE visible
06 Aug 9.2 01:21:33 15° W 01:25:44 33° NW 01:31:00 10° NNE visible
06 Aug 10.3 03:11:08 10° NW 03:13:59 14° NNW 03:16:51 10° NNE visible
06 Aug 10.5 05:00:30 10° NNW 05:03:06 13° NNE 05:05:42 10° NE visible
06 Aug 9.4 22:03:00 15° ESE 22:03:00 15° ESE 22:05:57 10° ENE visible
06 Aug 7.6 23:46:27 46° SSW 23:48:19 81° ESE 23:54:10 10° NE visible
07 Aug 9.6 01:30:28 10° W 01:35:19 26° NW 01:40:12 10° NNE visible
07 Aug 10.4 03:21:32 10° NNW 03:23:52 12° N 03:26:13 10° NNE visible
07 Aug 8.9 22:11:13 21° ESE 22:11:52 22° ESE 22:16:12 10° ENE visible
07 Aug 7.9 23:54:39 30° SW 23:57:38 73° NW 00:03:29 10° NNE visible
08 Aug 10.0 01:40:37 10° W 01:45:00 21° NNW 01:49:22 10° NNE visible
08 Aug 10.5 03:31:46 10° NNW 03:33:46 12° N 03:35:47 10° NNE visible
08 Aug 8.5 22:19:12 27° SE 22:20:55 32° ESE 22:25:59 10° NE visible
09 Aug 8.4 00:02:36 17° WSW 00:07:01 53° NW 00:12:44 10° NNE visible
09 Aug 10.2 01:50:55 10° WNW 01:54:44 17° NNW 01:58:33 10° NNE visible
09 Aug 10.6 03:41:43 10° NNW 03:43:42 12° N 03:45:41 10° NNE visible
09 Aug 8.0 22:26:47 23° S 22:30:03 45° ESE 22:35:35 10° NE visible
